Погода в Нолинске

Хотите узнать прогноз погоды в Нолинске? Тогда Вам сюда: Погода в Нолинске

Поиск расширенной информации на нашем сайте:

Полезная информация:

Новости сайта



02.01.2020
Опубликован Долгосрочный прогноз погоды по городам России и ближнего зарубежья на январь 2020 года.
Карты: Прогноз на январь и февраль 2020 года, Сравнение прогнозируемой аномалии приземной температуры воздуха на январь 2020 года по разным моделям.




Погода в Нолинске - сегодня

Время (UTC), дата Ветер
(°,м/с) 
Видим.   Явления Облачность Т
(°С)
Тd
(°С)
f(%) Тe
(°С)
Pmin
(гПа)
dP
(гПа)
Po
(мм)
O2
(г/м3)
Тmin Tmax R s Состояние
почвы
00 29.11.20 080 (В) 2-4{05}  20000 м    9/9 600 м 
-7.6 -8.8 91 -9  1043  1.5  769  320           
03 29.11.20 090 (В) 2-4{06}  20000 м    10/5 600 м средняя 
[Sc|Ac As]
-7.6 -8.9 90 -9  1044  769  320  -8.8    0.0  15  равномерный
сухой снег
100% 
06 29.11.20 080 (В) 1-2{05}  4000 м  дымка  10/10 300 м 
[St]
-7.2 -8.5 90 -7  1045.4  1.4  770  320           
09 29.11.20 080 (В) 2-4{04}  10 км  дымка  10/10 300 м 
[St]
-5.8 -7.1 90 -7  1045.9  0.6  771  318           
12 29.11.20 090 (В) 4-6{06}  10 км  дымка  10/10 300 м 
[St]
-5.4 -6.7 91 -9  1046  0.1  771  318           
15 29.11.20 090 (В) 4-6{06}  10 км    10/10 300 м 
[St]
-5.5 -6.6 92 -9  1046.9  0.9  772  318    -5.2       
18 29.11.20 100 (В) 1-3{06}  20000 м    10/10 600 м 
[Sc]
-4.9 -6.1 91 -4  1047.5  0.6  772  317           
21 29.11.20 110 (В) 2-5{05}  20000 м    10/10 600 м 
[Sc]
-4.4 -5.3 93 -6  1047.6  0.2  772  317           
00 30.11.20 100 (В) 1-3{05}  20000 м    10/10 600 м 
[Sc]
-4.1 -5.1 93 -4  1047.4  -0.3  772  316           
03 30.11.20 110 (В) 1-2{03}  20000 м    10/10 600 м 
[Sc]
-3.8 -4.8 93 -3  1047.5  0.2  772  316  -5.5      15  равномерный
сухой снег
100% 
06 30.11.20 130 (ЮВ) 1-3{03}  10 км    10/10 600 м 
[Sc]
-3.2 -4.3 92 -3  1047.7  0.2  772  315           
09 30.11.20 140 (ЮВ) 2-3{05}  20000 м    9/9 600 м 
[Sc]
-2.8 -4.9 85 -4  1047.1  -0.5  772  315           
12 30.11.20 130 (ЮВ) 2-5{05}  20000 м    6/3 600 м средняя, верхняя 
[Sc|Ac trans|Ci fib]
-2.8 -4.9 85 -4  1047.1  -0.6  771  315           
15 30.11.20 160 (Ю) 5-8{08}  20000 м    ясно 
-4.3 -6.4 85 -8  1046  -0.7  771  316    -2.6       
18 30.11.20 180 (Ю) 4-6{08}  20000 м    3/0 верхняя 
[Ci fib]
-5.5 -7.9 83 -9  1046.1  0.1  771  318           
21 30.11.20 180 (Ю) 4-5{07}  20000 м    ясно 
-7.5 -9.9 83 -11  1046.6  0.4  771  321           
00 01.12.20 180 (Ю) 4-6{06}  20000 м    1/0 верхняя 
[Ci fib]
-8.6 -11 83 -12  1046.8  0.1  771  322           
03 01.12.20 200 (Ю) 4-6{07}  20000 м    3/0 средняя 
[Ac trans]
-9.6 -11.7 85 -14  1047  0.1  771  323  -9.6      15  равномерный
сухой снег
100% 
06 01.12.20 180 (Ю) 3-4{06}  20000 м    3/0 средняя, верхняя 
[Ac trans|Ci fib]
-11.1 -13 86 -14  1047.5  0.4  772  325  -11.2         
09 01.12.20 200 (Ю) 3-4{07}  20000 м    3/0 верхняя 
[Ci fib]
-8.7 -11.6 79 -12  1046.7  -0.6  771  322           
12 01.12.20 180 (Ю) 4-5{06}  20000 м    3/0 верхняя 
[Ci fib]
-9.2 -11.9 81 -13  1046.4  -0.3  771  323           
15 01.12.20 200 (Ю) 4-6{06}  20000 м    1/0 верхняя 
[Ci fib]
-11.3 -13.1 87 -15  1046.6  771  325    -8.1       
21 01.12.20 190 (Ю) 3-5{07}  20000 м  {снег}  10/0 средняя 
[Ac As]
-7.7 -8.7 93 -10  1045.1  -0.6  770  320           
00 02.12.20 210 (ЮЗ) 3-5{07}  20000 м  {снег}  10/4 600 м средняя 
[Sc|Ac As]
-7.5 -8.5 93 -10  1044.4  -0.7  770  320           
03 02.12.20 200 (Ю) 4-6{07}  20000 м    10/6 600 м средняя 
[Sc|Ac As]
-7.7 -8.8 92 -11  1043.9  -0.6  769  320  -11.5    0.0  15  равномерный
сухой снег
100% 
Время (UTC), дата Ветер
(°,м/с) 
Видим.   Явления Облачность Т
(°С)
Тd
(°С)
f(%) Тe
(°С)
Pmin
(гПа)
dP
(гПа)
Po
(мм)
O2
(г/м3)
Тmin Tmax R s Состояние
почвы

Для получения пояснительной информации подведите курсор к названию столбца.

ПОГОДА в Нолинске - архив

Всё, что Вы хотите узнать о погоде в Нолинске - удобно и подробно!

Выберите нужную дату (начиная с 1 января 2019* года) и нажмите кнопку "Найти".
Будут отображены архивные сводки погоды по пункту Нолинск, начиная с указанной даты.


Отображать данные в формате CSV (для использования в таблицах Excel)


Внимание! Наш архив погоды предназначен исключительно для личного некоммерческого использования в познавательных целях. Если Вам необходимы официальные справки о состоянии погоды (для производственных, юридических, коммерческих и т.п. целей), обращайтесь в органы Росгидромета.

*Примечание: данная дата относится к архиву по метеостанциям СССР (Россия, СНГ, Балтия).
Архив по метеостанциям Зарубежной Европы и Азии (кроме Китая) хранится 10 дней, по другим регионам земного шара (Китай, Африка, Америка, Австралия, Океания) - 1 день.

Нолинск - район местоположения метеостанции


Название, широта, долгота, высота метеостанции:
Нолинск 57.6°ш. 49.9°д. 136 м над ур. моря [Российская Федерация]

Дополнительная информация

В oтличие oт бoльшинства пoгoдных сайтoв мы публикуем пoдрoбную метеoинфoрмацию в детальнoм прoфессиoнальнoм фoрмате.

Характеристики температуры и влажнoсти вoздуха измеряются на высoте 2 м в тени вдали oт зданий и деревьев.
Скoрoсть ветра измеряется на высoте 10 м (на урoвне рoста челoвека скoрoсть ветра ниже в 1.5-2 раза). Если метеoстанция нахoдится в гoрoде или в лесу, тo скoрoсть ветра занижена на 2-4 м/с пo сравнению с oткрытым местoм. Скoрoсть ветра над акватoриями крупных рек и oзёр, а также на вершинах хoлмoв на 2-5 м/с выше, чем в oбычных услoвиях.
Атмoсфернoе давление в разных тoчках местнoсти мoжет значительнo oтличаться oт давления на метеoстанции, в зависимoсти oт услoвий рельефа (при пoдъёме на 10 м давление пoнижается примернo на 1 мм рт.ст.).